Hourly Weather Ruchocinek

Today, 20 April, Tuesday

Time Temperature Precipitation Wind Pressure Humidity
00:00 +10°C° 0 mm 1 mps 752 mmHg 75%
01:00 +9°C° 0 mm 1 mps 752 mmHg 75%
02:00 +9°C° 0 mm 1 mps 752 mmHg 76%
03:00 +8°C° 0 mm 0 mps 752 mmHg 77%
04:00 +7°C° 0 mm 0 mps 752 mmHg 78%
05:00 +8°C° 0 mm 0 mps 752 mmHg 76%
06:00 +9°C° 0 mm 0 mps 752 mmHg 74%
07:00 +10°C° 0 mm 0 mps 752 mmHg 71%
08:00 +11°C° 0.1 mm 0 mps 752 mmHg 68%
09:00 +13°C° 0.1 mm 1 mps 752 mmHg 65%
10:00 +14°C° 0.1 mm 1 mps 752 mmHg 61%
11:00 +14°C° 0.2 mm 1 mps 751 mmHg 58%
12:00 +15°C° 0.2 mm 2 mps 751 mmHg 55%
13:00 +16°C° 0.2 mm 2 mps 751 mmHg 52%
14:00 +16°C° 0.2 mm 2 mps 750 mmHg 51%
15:00 +16°C° 0.2 mm 2 mps 750 mmHg 50%
16:00 +16°C° 0.2 mm 2 mps 750 mmHg 50%
17:00 +15°C° 0.1 mm 2 mps 750 mmHg 56%
18:00 +13°C° 0.1 mm 1 mps 750 mmHg 63%
19:00 +12°C° 0.1 mm 1 mps 749 mmHg 69%
20:00 +11°C° 0.2 mm 1 mps 749 mmHg 73%
21:00 +10°C° 0.2 mm 1 mps 749 mmHg 77%
22:00 +10°C° 0.2 mm 1 mps 749 mmHg 80%
23:00 +9°C° 0.1 mm 1 mps 749 mmHg 82%

Tomorrow, 21 April, Wednesday

Time Temperature Precipitation Wind Pressure Humidity
00:00 +9°C° 0.1 mm 1 mps 749 mmHg 83%
01:00 +9°C° 0.1 mm 1 mps 749 mmHg 85%
02:00 +7°C° 0 mm 2 mps 749 mmHg 86%
03:00 +7°C° 0 mm 2 mps 749 mmHg 87%
04:00 +6°C° 0 mm 2 mps 748 mmHg 88%
05:00 +7°C° 0 mm 2 mps 749 mmHg 86%
06:00 +8°C° 0 mm 3 mps 749 mmHg 84%
07:00 +9°C° 0 mm 3 mps 749 mmHg 82%
08:00 +10°C° 0.1 mm 3 mps 749 mmHg 77%
09:00 +11°C° 0.1 mm 4 mps 749 mmHg 72%
10:00 +12°C° 0.1 mm 4 mps 749 mmHg 67%
11:00 +13°C° 0.2 mm 4 mps 749 mmHg 61%
12:00 +14°C° 0.2 mm 4 mps 748 mmHg 54%
13:00 +15°C° 0.2 mm 4 mps 748 mmHg 48%
14:00 +15°C° 0 mm 4 mps 748 mmHg 49%
15:00 +14°C° 0 mm 4 mps 748 mmHg 50%
16:00 +14°C° 0 mm 4 mps 748 mmHg 51%
17:00 +13°C° 0 mm 3 mps 748 mmHg 55%
18:00 +12°C° 0 mm 3 mps 748 mmHg 59%
19:00 +11°C° 0 mm 3 mps 748 mmHg 63%
20:00 +10°C° 0 mm 4 mps 748 mmHg 70%
21:00 +8°C° 0 mm 4 mps 748 mmHg 77%
22:00 +6°C° 0 mm 5 mps 748 mmHg 84%
23:00 +6°C° 0.1 mm 5 mps 749 mmHg 84%

Day after tomorrow, 22 April, Thursday

Time Temperature Precipitation Wind Pressure Humidity
00:00 +5°C° 0.1 mm 4 mps 749 mmHg 84%
01:00 +4°C° 0.1 mm 4 mps 749 mmHg 84%
02:00 +3°C° 0 mm 4 mps 749 mmHg 84%
03:00 +3°C° 0 mm 4 mps 749 mmHg 84%
04:00 +1°C° 0 mm 5 mps 749 mmHg 83%
05:00 +1°C° 0 mm 5 mps 749 mmHg 80%
06:00 +1°C° 0 mm 6 mps 750 mmHg 77%
07:00 0°C° 0 mm 7 mps 750 mmHg 74%
08:00 +2°C° 0 mm 7 mps 750 mmHg 70%
09:00 +2°C° 0 mm 7 mps 750 mmHg 65%
10:00 +3°C° 0 mm 7 mps 750 mmHg 61%
11:00 +4°C° 0.1 mm 7 mps 750 mmHg 58%
12:00 +4°C° 0.1 mm 7 mps 750 mmHg 56%
13:00 +5°C° 0.1 mm 8 mps 750 mmHg 53%
14:00 +5°C° 0.2 mm 7 mps 750 mmHg 57%
15:00 +5°C° 0.2 mm 7 mps 750 mmHg 60%
16:00 +5°C° 0.2 mm 6 mps 750 mmHg 63%
17:00 +5°C° 0.5 mm 5 mps 751 mmHg 72%
18:00 +3°C° 0.5 mm 5 mps 751 mmHg 81%
19:00 +1°C° 0.5 mm 4 mps 751 mmHg 90%
20:00 +1°C° 0.2 mm 4 mps 751 mmHg 91%
21:00 0°C° 0.2 mm 4 mps 751 mmHg 92%
22:00 +1°C° 0.2 mm 3 mps 751 mmHg 93%
23:00 0°C° 0.1 mm 4 mps 751 mmHg 89%

23 April, Friday

Time Temperature Precipitation Wind Pressure Humidity
00:00 +1°C° 0.1 mm 5 mps 751 mmHg 85%
01:00 +1°C° 0.1 mm 5 mps 751 mmHg 81%
02:00 +1°C° 0 mm 6 mps 751 mmHg 82%
03:00 -1°C° 0 mm 6 mps 752 mmHg 84%
04:00 -1°C° 0 mm 7 mps 752 mmHg 85%
05:00 -1°C° 0 mm 7 mps 752 mmHg 84%
06:00 0°C° 0 mm 7 mps 753 mmHg 84%
07:00 0°C° 0 mm 7 mps 753 mmHg 83%
08:00 +2°C° 0.1 mm 7 mps 754 mmHg 75%
09:00 +4°C° 0.1 mm 7 mps 754 mmHg 68%
10:00 +5°C° 0.1 mm 7 mps 754 mmHg 60%
11:00 +6°C° 0.1 mm 8 mps 754 mmHg 53%
12:00 +7°C° 0.1 mm 8 mps 755 mmHg 46%
13:00 +9°C° 0.1 mm 8 mps 755 mmHg 39%
14:00 +7°C° 0 mm 8 mps 755 mmHg 39%
15:00 +8°C° 0 mm 7 mps 755 mmHg 40%
16:00 +8°C° 0 mm 7 mps 756 mmHg 40%
17:00 +7°C° 0 mm 5 mps 756 mmHg 45%
18:00 +5°C° 0 mm 3 mps 756 mmHg 50%
19:00 +4°C° 0 mm 2 mps 757 mmHg 56%
20:00 +5°C° 0 mm 1 mps 757 mmHg 55%
21:00 +5°C° 0 mm 1 mps 757 mmHg 55%
22:00 +5°C° 0 mm 1 mps 757 mmHg 55%
23:00 +5°C° 0.1 mm 1 mps 756 mmHg 60%

24 April, Saturday

Time Temperature Precipitation Wind Pressure Humidity
00:00 +5°C° 0.1 mm 1 mps 756 mmHg 66%
01:00 +5°C° 0.1 mm 1 mps 756 mmHg 71%
02:00 +3°C° 0 mm 2 mps 756 mmHg 75%
03:00 +3°C° 0 mm 2 mps 755 mmHg 78%
04:00 +3°C° 0 mm 2 mps 755 mmHg 81%
05:00 +3°C° 0 mm 3 mps 755 mmHg 81%
06:00 +4°C° 0 mm 4 mps 755 mmHg 82%
07:00 +5°C° 0 mm 5 mps 755 mmHg 82%
08:00 +5°C° 0.1 mm 5 mps 755 mmHg 78%
09:00 +5°C° 0.1 mm 6 mps 755 mmHg 75%
10:00 +7°C° 0.1 mm 6 mps 755 mmHg 72%
11:00 +7°C° 0.1 mm 6 mps 755 mmHg 70%
12:00 +6°C° 0.1 mm 7 mps 755 mmHg 68%
13:00 +6°C° 0.1 mm 7 mps 755 mmHg 66%
14:00 +6°C° 0.1 mm 7 mps 755 mmHg 65%
15:00 +7°C° 0.1 mm 6 mps 755 mmHg 64%
16:00 +8°C° 0.1 mm 6 mps 755 mmHg 63%
17:00 +6°C° 0.1 mm 5 mps 755 mmHg 66%
18:00 +5°C° 0.1 mm 4 mps 756 mmHg 69%
19:00 +4°C° 0.1 mm 3 mps 756 mmHg 72%
20:00 +3°C° 0 mm 3 mps 756 mmHg 71%
21:00 +2°C° 0 mm 3 mps 757 mmHg 70%
22:00 +1°C° 0 mm 3 mps 757 mmHg 69%
23:00 0°C° 0 mm 3 mps 757 mmHg 69%

25 April, Sunday

Time Temperature Precipitation Wind Pressure Humidity
00:00 +1°C° 0 mm 2 mps 758 mmHg 68%
01:00 -1°C° 0 mm 2 mps 758 mmHg 67%
02:00 -1°C° 0 mm 2 mps 758 mmHg 68%
03:00 -1°C° 0 mm 3 mps 758 mmHg 69%
04:00 -2°C° 0 mm 3 mps 758 mmHg 70%
05:00 0°C° 0 mm 3 mps 758 mmHg 65%
06:00 +1°C° 0 mm 4 mps 759 mmHg 60%
07:00 +3°C° 0 mm 4 mps 759 mmHg 55%
08:00 +5°C° 0 mm 5 mps 759 mmHg 50%
09:00 +5°C° 0 mm 6 mps 759 mmHg 44%
10:00 +6°C° 0 mm 7 mps 759 mmHg 38%
11:00 +8°C° 0 mm 7 mps 759 mmHg 37%
12:00 +8°C° 0 mm 6 mps 759 mmHg 37%
13:00 +9°C° 0 mm 6 mps 759 mmHg 36%
14:00 +9°C° 0 mm 6 mps 759 mmHg 37%
15:00 +9°C° 0 mm 6 mps 759 mmHg 38%
16:00 +9°C° 0 mm 6 mps 759 mmHg 38%
17:00 +7°C° 0 mm 5 mps 759 mmHg 45%
18:00 +5°C° 0 mm 4 mps 759 mmHg 51%
19:00 +3°C° 0 mm 3 mps 759 mmHg 58%
20:00 +3°C° 0 mm 3 mps 759 mmHg 58%
21:00 +2°C° 0 mm 3 mps 760 mmHg 59%
22:00 +2°C° 0 mm 2 mps 760 mmHg 59%
23:00 +1°C° 0 mm 2 mps 760 mmHg 59%
Show more